Location: Ełk
(53.8214°N, 22.3622°E)
Time: 07:01:10
(UTC+02:00)

ISS - Visible Passes

Search period start: 20 September 2018 00:00
Search period end: 30 September 2018 00:00
Orbit: 402 x 408 km, 51.6° (Epoch: 20 September)

Date Brightness Start Highest point End Pass type
(mag) Time Alt. Az. Time Alt. Az. Time Alt. Az.
23 Sep -1.7 19:37:43 10° S 19:39:12 13° SE 19:39:12 13° SE visible
24 Sep -2.3 20:20:20 10° SW 20:22:20 25° S 20:22:20 25° S visible
25 Sep -2.3 19:28:49 10° SSW 19:31:23 21° SSE 19:32:36 17° ESE visible
25 Sep -1.5 21:04:14 10° WSW 21:05:17 18° WSW 21:05:17 18° WSW visible
26 Sep -3.3 20:12:21 10° SW 20:15:26 42° SSE 20:15:26 42° SSE visible
27 Sep -2.9 19:20:33 10° SW 19:23:33 32° SSE 19:25:29 17° ESE visible
27 Sep -2.0 20:56:30 10° WSW 20:58:09 26° WSW 20:58:09 26° WSW visible
28 Sep -3.7 20:04:31 10° WSW 20:07:45 54° S 20:08:07 50° SE visible
29 Sep -3.3 19:12:34 10° WSW 19:15:44 45° SSE 19:18:02 17° E visible
29 Sep -2.2 20:48:46 10° W 20:50:42 31° WSW 20:50:42 31° WSW visible
